This is the latest recevied weather packets stored in our database for station/object KJ5JYX. If no packets are shown the sender has not sent any weather packets the latest 10 day(s).
| Time | Temp. | Humidity | Pressure | Rain* | Wind** | Luminosity | Snow |
|---|---|---|---|---|---|---|---|
| 1777928306 | 28.89° C | 58% | 1010.7 hPa | 0 mm | - | 560 W/m² | - |
| 1777927099 | 28.89° C | 57% | 1011.2 hPa | 0 mm | - | 578 W/m² | - |
| 1777926795 | 28.89° C | 57% | 1011.3 hPa | 0 mm | - | 608 W/m² | - |
| 1777925885 | 27.78° C | 59% | 1011.5 hPa | 0 mm | - | 363 W/m² | - |
| 1777925280 | 28.33° C | 64% | 1011.8 hPa | 0 mm | - | 381 W/m² | - |
| 1777924975 | 27.78° C | 61% | 1011.9 hPa | 0 mm | - | 366 W/m² | - |
| 1777924672 | 28.33° C | 60% | 1012 hPa | 0 mm | - | 293 W/m² | - |
| 1777924368 | 27.78° C | 61% | 1012 hPa | 0 mm | - | 617 W/m² | - |
| 1777924065 | 27.78° C | 61% | 1012.3 hPa | 0 mm | - | 670 W/m² | - |
| 1777923155 | 28.33° C | 60% | 1012.5 hPa | 0 mm | - | 614 W/m² | - |
| 1777922853 | 27.78° C | 62% | 1012.3 hPa | 0 mm | - | 585 W/m² | - |
| 1777922551 | 27.78° C | 62% | 1012.6 hPa | 0 mm | - | 590 W/m² | - |
| 1777922249 | 27.22° C | 60% | 1012.7 hPa | 0 mm | - | 668 W/m² | - |
| 1777921946 | 27.22° C | 61% | 1012.6 hPa | 0 mm | - | 565 W/m² | - |
| 1777921641 | 27.22° C | 61% | 1012.6 hPa | 0 mm | - | 483 W/m² | - |
| 1777921035 | 26.67° C | 62% | 1012.8 hPa | 0 mm | - | 762 W/m² | - |
| 1777919516 | 27.22° C | 61% | 1013.2 hPa | 0 mm | - | 511 W/m² | - |
| 1777919214 | 26.67° C | 65% | 1013.2 hPa | 0 mm | - | 687 W/m² | - |
| 1777918912 | 26.67° C | 63% | 1013.5 hPa | 0 mm | - | 447 W/m² | - |
| 1777918307 | 26.67° C | 64% | 1014 hPa | 0 mm | - | 642 W/m² | - |
| 1777918005 | 26.11° C | 65% | 1013.9 hPa | 0 mm | - | 648 W/m² | - |
| 1777917704 | 25.56° C | 65% | 1014.1 hPa | 0 mm | - | 261 W/m² | - |
| 1777917401 | 25° C | 69% | 1014.3 hPa | 0 mm | - | 499 W/m² | - |
| 1777916189 | 25° C | 69% | 1014.1 hPa | 0 mm | - | 613 W/m² | - |
| 1777915582 | 24.44° C | 69% | 1014.2 hPa | 0 mm | - | 310 W/m² | - |
* Rain latest hour (hover to see other rain measurements)
** Current wind speed in m/s (hover to see current wind gust speed)